Lancaster, TX

1:05 AM CST on February 14, 2016 (GMT -0600)
Lancaster

Weather History for KLNC - March, 2013

Change the Weather History Date:

Sunday, March 17, 2013

  Actual Average (KRBD) Record (KRBD)
Temperature  
Mean Temperature 65 °F -  
Max Temperature 75 °F 64 °F 82 °F (2009)
Min Temperature 55 °F 46 °F 33 °F (2005)
Growing Degree Days 15 (Base 50)    
Moisture  
Dew Point 57 °F    
Average Humidity 70    
Maximum Humidity 85    
Minimum Humidity 47    
Precipitation  
Precipitation 0.00 in - - ()
Sea Level Pressure  
Sea Level Pressure 29.74 in    
Wind  
Wind Speed 11 mph (SSW)    
Max Wind Speed 20 mph    
Max Gust Speed 31 mph    
Visibility 10 miles    
Events      
Averages and records for this station are not official NWS values.
T = Trace of Precipitation, MM = Missing Value Source: NWS Daily Summary

Daily Weather History Graph

Daily Weather History Graph

Search for Another Location

Airport or City:

Trip Planner

Search our weather history database for the weather conditions in past years. The results will help you decide how hot, cold, wet, or windy it might be!

Date:

Astronomy

Mar. 17, 2013 Rise Set
Actual Time 7:34 AM CDT 7:36 PM CDT
Civil Twilight 7:09 AM CDT 8:01 PM CDT
Nautical Twilight 6:41 AM CDT 8:29 PM CDT
Astronomical Twilight 6:12 AM CDT 8:58 PM CDT
Moon 11:05 AM CDT (3/17) 12:28 AM CDT (3/17)
Length of Visible Light 12h 51m
Length of Day
12h 02m
Waxing Crescent, 31% of the Moon is Illuminated
Mar 17
Waxing Crescent
Mar 19
First Quarter
Mar 27
Full
Apr 2
Last Quarter
Apr 10
New

Hourly Weather History & Observations

Time (CDT) Temp. Dew Point Humidity Pressure Visibility Wind Dir Wind Speed Gust Speed Precip Events Conditions
12:15 AM 67.1 °F 57.9 °F 72% 29.76 in 10.0 mi South 9.2 mph 19.6 mph N/A   Clear
12:35 AM 66.6 °F 58.3 °F 75% 29.76 in 10.0 mi South 17.3 mph 26.5 mph N/A   Clear
12:55 AM 66.2 °F 58.6 °F 77% 29.76 in 10.0 mi South 17.3 mph 25.3 mph N/A   Scattered Clouds
1:15 AM 66.2 °F 58.6 °F 77% 29.75 in 10.0 mi South 19.6 mph 31.1 mph N/A   Overcast
1:35 AM 66.4 °F 59.0 °F 77% 29.76 in 10.0 mi South 17.3 mph 29.9 mph N/A   Overcast
1:55 AM 66.6 °F 59.2 °F 77% 29.76 in 10.0 mi South 18.4 mph 25.3 mph N/A   Overcast
2:15 AM 66.7 °F 59.2 °F 77% 29.76 in 10.0 mi South 15.0 mph 23.0 mph N/A   Overcast
2:35 AM 66.6 °F 59.2 °F 77% 29.76 in 10.0 mi South 12.7 mph 19.6 mph N/A   Overcast
2:55 AM 66.7 °F 59.4 °F 77% 29.76 in 10.0 mi South 11.5 mph 21.9 mph N/A   Overcast
3:15 AM 66.6 °F 59.2 °F 77% 29.76 in 10.0 mi South 12.7 mph 18.4 mph N/A   Overcast
3:35 AM 66.2 °F 59.2 °F 78% 29.75 in 10.0 mi South 11.5 mph - N/A   Overcast
3:55 AM 65.8 °F 59.4 °F 80% 29.75 in 10.0 mi South 11.5 mph - N/A   Overcast
4:15 AM 65.7 °F 59.4 °F 80% 29.75 in 10.0 mi South 12.7 mph 18.4 mph N/A   Overcast
4:35 AM 65.3 °F 59.4 °F 81% 29.75 in 10.0 mi South 10.4 mph 19.6 mph N/A   Mostly Cloudy
4:55 AM 64.9 °F 59.4 °F 82% 29.75 in 10.0 mi South 10.4 mph 17.3 mph N/A   Clear
5:15 AM 64.8 °F 59.5 °F 83% 29.75 in 10.0 mi South 9.2 mph - N/A   Scattered Clouds
5:35 AM 64.9 °F 59.9 °F 84% 29.76 in 10.0 mi South 8.1 mph - N/A   Overcast
5:55 AM 64.8 °F 59.9 °F 84% 29.76 in 10.0 mi South 6.9 mph - N/A   Overcast
6:15 AM 64.8 °F 59.9 °F 84% 29.76 in 10.0 mi South 6.9 mph - N/A   Overcast
6:35 AM 64.4 °F 59.9 °F 85% 29.77 in 10.0 mi South 5.8 mph - N/A   Overcast
6:55 AM 64.4 °F 59.9 °F 85% 29.77 in 10.0 mi South 5.8 mph - N/A   Overcast
7:15 AM 64.4 °F 59.9 °F 85% 29.77 in 10.0 mi SSE 5.8 mph - N/A   Overcast
7:35 AM 64.6 °F 59.9 °F 85% 29.78 in 10.0 mi SSE 8.1 mph - N/A   Overcast
7:55 AM 64.6 °F 59.9 °F 85% 29.78 in 10.0 mi SSE 8.1 mph - N/A   Overcast
8:15 AM 65.1 °F 59.4 °F 82% 29.78 in 10.0 mi South 9.2 mph - N/A   Overcast
8:35 AM 65.5 °F 59.2 °F 80% 29.79 in 10.0 mi South 11.5 mph - N/A   Overcast
8:55 AM 66.0 °F 59.4 °F 79% 29.79 in 10.0 mi South 9.2 mph - N/A   Overcast
9:15 AM 65.8 °F 59.9 °F 81% 29.79 in 10.0 mi SSE 9.2 mph - N/A   Overcast
9:35 AM 66.2 °F 59.9 °F 80% 29.80 in 10.0 mi SSE 11.5 mph - N/A   Overcast
9:55 AM 66.4 °F 59.9 °F 80% 29.80 in 10.0 mi South 9.2 mph - N/A   Overcast
10:15 AM 66.9 °F 59.9 °F 78% 29.80 in 10.0 mi South 10.4 mph 17.3 mph N/A   Overcast
10:35 AM 67.1 °F 59.9 °F 78% 29.81 in 10.0 mi South 11.5 mph - N/A   Overcast
10:55 AM 67.3 °F 59.9 °F 77% 29.82 in 10.0 mi South 11.5 mph 17.3 mph N/A   Overcast
11:15 AM 67.3 °F 59.9 °F 77% 29.81 in 10.0 mi South 9.2 mph - N/A   Overcast
11:35 AM 67.5 °F 59.9 °F 77% 29.79 in 10.0 mi SSE 12.7 mph - N/A   Overcast
11:55 AM 70.5 °F 59.9 °F 69% 29.78 in 10.0 mi South 17.3 mph - N/A   Scattered Clouds
12:15 PM 71.8 °F 59.4 °F 65% 29.77 in 10.0 mi South 16.1 mph 21.9 mph N/A   Scattered Clouds
12:35 PM 72.1 °F 59.2 °F 64% 29.77 in 10.0 mi SSW 13.8 mph 21.9 mph N/A   Mostly Cloudy
12:55 PM 72.9 °F 59.5 °F 63% 29.76 in 10.0 mi South 15.0 mph 19.6 mph N/A   Overcast
1:15 PM 73.4 °F 59.2 °F 61% 29.76 in 10.0 mi South 10.4 mph - N/A   Overcast
1:35 PM 73.8 °F 58.5 °F 59% 29.75 in 10.0 mi SSW 12.7 mph 18.4 mph N/A   Overcast
1:55 PM 73.4 °F 57.9 °F 58% 29.75 in 10.0 mi SSW 13.8 mph 17.3 mph N/A   Overcast
2:15 PM 73.2 °F 57.0 °F 57% 29.74 in 10.0 mi SW 15.0 mph 20.7 mph N/A   Overcast
2:35 PM 73.6 °F 56.7 °F 55% 29.73 in 10.0 mi SW 15.0 mph 19.6 mph N/A   Overcast
2:55 PM 73.6 °F 56.7 °F 55% 29.72 in 10.0 mi SSW 13.8 mph 19.6 mph N/A   Overcast
3:15 PM 74.5 °F 56.8 °F 54% 29.71 in 10.0 mi SW 12.7 mph 17.3 mph N/A   Overcast
3:35 PM 73.6 °F 56.5 °F 55% 29.70 in 10.0 mi WSW 12.7 mph - N/A   Overcast
3:55 PM 73.9 °F 56.3 °F 54% 29.70 in 10.0 mi WSW 12.7 mph - N/A   Overcast
4:15 PM 74.3 °F 55.4 °F 52% 29.69 in 10.0 mi WSW 6.9 mph 10.4 mph N/A   Mostly Cloudy
4:35 PM 74.3 °F 55.2 °F 51% 29.68 in 10.0 mi SW 8.1 mph - N/A   Mostly Cloudy
4:55 PM 74.5 °F 55.0 °F 51% 29.68 in 10.0 mi West 4.6 mph - N/A   Mostly Cloudy
5:15 PM 75.0 °F 55.2 °F 50% 29.68 in 10.0 mi SSW 8.1 mph - N/A   Mostly Cloudy
5:35 PM 73.8 °F 54.0 °F 50% 29.68 in 10.0 mi NW 5.8 mph - N/A   Mostly Cloudy
5:55 PM 74.3 °F 53.1 °F 47% 29.68 in 10.0 mi NW 8.1 mph - N/A   Overcast
6:15 PM 73.9 °F 53.4 °F 49% 29.68 in 10.0 mi WNW 8.1 mph - N/A   Scattered Clouds
6:35 PM 73.2 °F 53.1 °F 49% 29.68 in 10.0 mi West 6.9 mph - N/A   Clear
6:55 PM 72.0 °F 52.9 °F 51% 29.69 in 10.0 mi West 5.8 mph - N/A   Scattered Clouds
7:15 PM 70.5 °F 52.7 °F 53% 29.68 in 10.0 mi West 5.8 mph - N/A   Clear
7:35 PM 68.2 °F 52.5 °F 57% 29.69 in 10.0 mi NW 4.6 mph - N/A   Clear
7:55 PM 66.0 °F 51.8 °F 60% 29.69 in 10.0 mi WNW 4.6 mph - N/A   Clear
8:15 PM 65.7 °F 50.9 °F 59% 29.70 in 10.0 mi Calm Calm - N/A   Clear
8:35 PM 64.4 °F 50.7 °F 61% 29.70 in 10.0 mi Calm Calm - N/A   Scattered Clouds
8:55 PM 62.6 °F 50.2 °F 64% 29.70 in 10.0 mi Calm Calm - N/A   Clear
9:15 PM 61.7 °F 48.9 °F 63% 29.70 in 10.0 mi Calm Calm - N/A   Scattered Clouds
9:35 PM 60.3 °F 49.8 °F 68% 29.70 in 10.0 mi Calm Calm - N/A   Clear
9:55 PM 59.9 °F 50.2 °F 70% 29.71 in 10.0 mi Calm Calm - N/A   Clear
10:15 PM 58.3 °F 50.0 °F 74% 29.72 in 10.0 mi Calm Calm - N/A   Scattered Clouds
10:35 PM 57.7 °F 50.9 °F 78% 29.73 in 10.0 mi Calm Calm - N/A   Scattered Clouds
10:55 PM 57.7 °F 50.5 °F 77% 29.73 in 10.0 mi Calm Calm - N/A   Scattered Clouds
11:15 PM 55.8 °F 48.7 °F 77% 29.73 in 10.0 mi Calm Calm - N/A   Clear
11:35 PM 57.7 °F 50.2 °F 76% 29.73 in 10.0 mi Calm Calm - N/A   Clear
11:55 PM 55.6 °F 47.8 °F 75% 29.73 in 10.0 mi Calm Calm - N/A   Clear